Location: Spruce Knob
(38.6995°N, 79.5330°W)
Time: 22:38:56
(UTC-04:00)

Tiros 1 - Visible Passes

Search period start: 17 August 2022 00:00
Search period end: 27 August 2022 00:00
Orbit: 629 x 663 km, 48.4° (Epoch: 17 August)

Date Brightness Start Highest point End Pass type
(mag) Time Alt. Az. Time Alt. Az. Time Alt. Az.
17 Aug 10.0 00:26:43 10° WNW 00:27:07 12° WNW 00:27:07 12° WNW visible
17 Aug 8.9 21:28:04 10° NW 21:31:58 25° N 21:35:53 10° ENE visible
17 Aug 8.3 23:10:18 10° NW 23:13:43 41° NNW 23:13:43 41° NNW visible
18 Aug 8.5 21:53:54 10° NW 21:58:06 32° NNE 22:00:19 21° ENE visible
18 Aug 9.1 23:35:57 10° WNW 23:37:57 25° WNW 23:37:57 25° WNW visible
19 Aug 8.9 20:37:16 10° NW 20:41:07 25° N 20:45:00 10° ENE visible
19 Aug 7.7 22:19:32 10° NW 22:24:05 48° NNE 22:24:35 46° NE visible
20 Aug 10.0 00:01:50 10° WNW 00:02:12 12° WNW 00:02:12 12° WNW visible
20 Aug 8.5 21:03:08 10° NW 21:07:16 30° NNE 21:11:16 11° ENE visible
20 Aug 7.7 22:45:10 10° WNW 22:48:53 56° NW 22:48:53 56° NW visible
21 Aug 7.8 21:28:47 10° NW 21:33:16 45° NNE 21:35:36 25° E visible
21 Aug 9.0 23:11:01 10° WNW 23:13:13 25° W 23:13:13 25° W visible
22 Aug 7.0 21:54:24 10° NW 21:59:04 82° NNE 21:59:59 58° ESE visible
22 Aug 10.0 23:37:30 10° W 23:37:37 10° W 23:37:37 10° W visible
23 Aug 7.9 20:38:00 10° NW 20:42:27 42° NNE 20:46:48 11° E visible
23 Aug 7.7 22:20:11 10° WNW 22:24:26 47° SW 22:24:26 47° SW visible
24 Aug 7.1 21:03:37 10° NW 21:08:16 76° NNE 21:11:18 22° ESE visible
24 Aug 9.2 22:46:33 10° W 22:48:56 19° WSW 22:48:56 19° WSW visible
25 Aug 7.6 21:29:22 10° WNW 21:33:54 52° SW 21:35:52 30° SSE visible
26 Aug 8.8 21:55:37 10° W 21:59:19 23° SW 22:00:31 21° SSW visible
